PST,Max TemperatureF,Mean TemperatureF,Min TemperatureF,Max Dew PointF,MeanDew PointF,Min DewpointF,Max Humidity, Mean Humidity, Min Humidity, Max Sea Level PressureIn, Mean Sea Level PressureIn, Min Sea Level PressureIn, Max VisibilityMiles, Mean VisibilityMiles, Min VisibilityMiles, Max Wind SpeedMPH, Mean Wind SpeedMPH, Max Gust SpeedMPH,PrecipitationIn, CloudCover, Events, WindDirDegrees
2011-11-1,80,64,47,52,41,20,96,56,15,30.05,30.01,29.97,10,5,0,9,3,16,0.00,1,Fog,14
2011-11-2,81,62,43,40,31,23,59,36,13,30.12,30.06,30.03,10,10,9,12,3,20,0.00,0,,343
2011-11-3,63,53,42,48,42,36,93,68,42,30.03,29.91,29.84,10,10,10,16,4,21,0.04,3,Rain,253
2011-11-4,61,51,40,45,41,34,93,65,36,29.96,29.87,29.83,10,10,4,5,3,6,0.08,4,Rain,302
2011-11-5,57,48,38,48,43,36,93,75,57,30.07,29.99,29.93,10,8,2,10,3,26,0.88,6,Rain,310
2011-11-6,61,52,43,49,46,41,93,78,62,30.14,30.02,29.95,10,10,9,14,3,16,0.05,4,Rain,279
2011-11-7,60,51,41,46,43,39,92,75,57,30.28,30.23,30.15,10,10,10,10,4,15,0.00,1,,295
2011-11-8,66,52,38,45,41,37,93,67,40,30.33,30.28,30.24,10,10,10,9,3,13,0.00,0,,311
2011-11-9,70,56,42,43,38,34,83,55,26,30.28,30.21,30.14,10,10,9,8,3,20,0.00,0,,303
2011-11-10,66,53,40,48,41,36,89,63,36,30.16,30.07,29.93,10,10,9,7,3,8,0.00,0,,290
2011-11-11,58,52,46,51,47,38,89,70,51,29.89,29.81,29.73,10,9,6,6,3,8,0.27,6,Rain,4
2011-11-12,62,56,49,51,49,46,93,79,64,29.96,29.88,29.80,10,10,10,6,2,8,0.00,6,,318
2011-11-13,66,56,46,50,47,44,93,75,56,30.03,29.98,29.94,10,9,6,8,2,18,0.00,1,,276
2011-11-14,62,54,46,50,47,43,93,77,60,30.10,30.03,29.99,10,7,0,6,3,8,0.00,5,Fog,281
2011-11-15,67,55,42,51,47,42,92,74,56,30.17,30.13,30.10,10,10,10,6,2,8,0.00,0,,275
2011-11-16,65,55,44,52,48,41,96,78,60,30.24,30.20,30.16,10,3,0,8,2,10,0.00,1,Fog,180
2011-11-17,60,52,44,49,45,42,93,78,62,30.22,30.17,30.07,10,5,0,6,1,8,0.00,3,Fog,265
2011-11-18,60,53,45,49,47,43,93,78,62,30.09,30.04,29.98,10,7,0,14,3,20,0.02,7,Fog-Rain,266
2011-11-19,57,50,42,45,42,35,96,72,47,30.01,29.95,29.79,10,5,0,9,3,20,0.29,4,Fog-Rain,40
2011-11-20,57,50,43,49,46,41,93,83,72,30.02,29.83,29.73,10,9,2,12,3,15,0.51,6,Rain,71
2011-11-21,61,50,38,46,42,38,100,78,55,30.28,30.19,30.04,10,10,10,7,3,8,0.00,1,,303
2011-11-22,61,52,42,46,43,41,96,76,55,30.32,30.25,30.12,10,10,10,9,3,12,0.00,2,,331
2011-11-23,61,51,40,47,42,37,93,74,55,30.10,29.98,29.87,10,8,0,13,1,16,0.00,3,Fog,11
2011-11-24,59,53,46,54,49,45,93,80,66,30.26,30.09,29.90,10,8,2,6,2,7,0.05,7,Rain,121
2011-11-25,64,53,41,50,45,40,89,75,60,30.36,30.32,30.27,10,9,1,8,2,18,0.00,0,,330
2011-11-26,72,60,47,51,48,44,86,67,47,30.37,30.31,30.26,10,10,10,12,4,18,0.00,0,,79
2011-11-27,73,58,43,51,46,41,93,66,38,30.32,30.27,30.25,10,10,10,7,2,15,0.00,0,,282
2011-11-28,63,54,44,51,46,41,92,76,60,30.28,30.23,30.18,10,10,9,6,1,7,0.00,0,,310
2011-11-29,68,55,42,51,45,39,93,73,52,30.24,30.19,30.13,10,10,7,6,1,21,0.00,0,,270
2011-11-30,68,53,38,46,35,21,93,56,18,30.17,30.14,30.06,10,7,1,24,8,43,0.00,1,,337